TimeCDT,TemperatureF,Dew PointF,Humidity,Sea Level PressureIn,VisibilityMPH,Wind Direction,Wind SpeedMPH,Gust SpeedMPH,PrecipitationIn,Events,Conditions,WindDirDegrees,DateUTC
12:15 AM,19.4,17.6,93,29.64,10.0,WNW,9.2,-,N/A,Snow,Light Snow,300,2013-03-12 05:15:00
12:35 AM,19.4,17.6,93,29.64,10.0,WNW,5.8,-,N/A,Snow,Light Snow,300,2013-03-12 05:35:00
12:55 AM,19.4,17.6,93,29.64,7.0,WNW,3.5,-,N/A,Snow,Light Snow,300,2013-03-12 05:55:00
1:15 AM,19.4,17.6,93,29.64,7.0,WNW,4.6,-,N/A,Snow,Light Snow,300,2013-03-12 06:15:00
1:35 AM,19.4,17.6,93,29.64,10.0,NW,6.9,-,N/A,Snow,Light Snow,310,2013-03-12 06:35:00
1:55 AM,19.4,17.6,93,29.65,10.0,WNW,3.5,-,N/A,Snow,Light Snow,290,2013-03-12 06:55:00
2:15 AM,19.4,17.6,93,29.65,10.0,WNW,4.6,-,N/A,Snow,Light Snow,300,2013-03-12 07:15:00
2:35 AM,19.4,17.6,93,29.65,10.0,WNW,5.8,-,N/A,Snow,Light Snow,300,2013-03-12 07:35:00
2:55 AM,19.4,17.6,93,29.65,7.0,WNW,4.6,-,N/A,Snow,Light Snow,290,2013-03-12 07:55:00
3:15 AM,19.4,17.6,93,29.65,5.0,NW,4.6,-,N/A,Snow,Light Snow,310,2013-03-12 08:15:00
3:35 AM,19.4,17.6,93,29.65,5.0,WNW,5.8,-,N/A,Snow,Light Snow,300,2013-03-12 08:35:00
3:55 AM,19.4,17.6,93,29.65,7.0,NW,4.6,-,N/A,Snow,Light Snow,310,2013-03-12 08:55:00
4:15 AM,19.4,17.6,93,29.65,7.0,Calm,Calm,-,N/A,Snow,Light Snow,0,2013-03-12 09:15:00
4:35 AM,19.4,17.6,93,29.65,7.0,NW,4.6,-,N/A,Snow,Light Snow,310,2013-03-12 09:35:00
4:55 AM,19.4,17.6,93,29.66,7.0,NW,4.6,-,N/A,Snow,Light Snow,320,2013-03-12 09:55:00
5:15 AM,19.4,15.8,86,29.66,7.0,WNW,3.5,-,N/A,Snow,Light Snow,290,2013-03-12 10:15:00
5:35 AM,19.4,15.8,86,29.67,5.0,WNW,4.6,-,N/A,Snow,Light Snow,290,2013-03-12 10:35:00
5:55 AM,19.4,15.8,86,29.67,7.0,WNW,3.5,-,N/A,Snow,Light Snow,290,2013-03-12 10:55:00
6:15 AM,19.4,17.6,93,29.68,7.0,WNW,4.6,-,N/A,Snow,Light Snow,300,2013-03-12 11:15:00
6:35 AM,19.4,17.6,93,29.68,7.0,WNW,5.8,-,N/A,Snow,Light Snow,300,2013-03-12 11:35:00
6:55 AM,19.4,17.6,93,29.68,5.0,WNW,3.5,-,N/A,Snow,Light Snow,300,2013-03-12 11:55:00
7:15 AM,19.4,17.6,93,29.68,5.0,WNW,5.8,-,N/A,Snow,Light Snow,290,2013-03-12 12:15:00
7:35 AM,19.4,17.6,93,29.68,4.0,WNW,3.5,-,N/A,Snow,Light Snow,300,2013-03-12 12:35:00
7:55 AM,19.4,17.6,93,29.68,5.0,Calm,Calm,-,N/A,Snow,Light Snow,0,2013-03-12 12:55:00
8:15 AM,19.4,17.6,93,29.69,4.0,West,3.5,-,N/A,Snow,Light Snow,280,2013-03-12 13:15:00
8:35 AM,21.2,17.6,86,29.69,3.0,WNW,3.5,-,N/A,Snow,Light Snow,300,2013-03-12 13:35:00
8:55 AM,21.2,17.6,86,29.69,2.5,WNW,3.5,-,N/A,Snow,Light Snow,290,2013-03-12 13:55:00
9:15 AM,21.2,17.6,86,29.69,1.5,WNW,4.6,-,N/A,Snow,Light Snow,300,2013-03-12 14:15:00
9:35 AM,21.2,17.6,86,29.69,2.0,WNW,8.1,-,N/A,Snow,Light Snow,300,2013-03-12 14:35:00
9:55 AM,21.2,17.6,86,29.69,1.8,WNW,5.8,-,N/A,Snow,Light Snow,290,2013-03-12 14:55:00
10:15 AM,21.2,17.6,86,29.69,2.0,West,6.9,-,N/A,Snow,Light Snow,270,2013-03-12 15:15:00
10:35 AM,23.0,17.6,80,29.70,1.8,West,6.9,-,N/A,Snow,Light Snow,280,2013-03-12 15:35:00
10:55 AM,23.0,17.6,80,29.70,1.5,West,9.2,-,N/A,Snow,Light Snow,270,2013-03-12 15:55:00
11:15 AM,23.0,19.4,86,29.70,1.8,WNW,4.6,-,N/A,Snow,Light Snow,290,2013-03-12 16:15:00
11:35 AM,23.0,19.4,86,29.70,1.2,West,4.6,-,N/A,Snow,Light Snow,270,2013-03-12 16:35:00
11:55 AM,23.0,19.4,86,29.71,1.0,NNW,5.8,-,N/A,Snow,Light Snow,340,2013-03-12 16:55:00
12:15 PM,23.0,17.6,80,29.72,1.8,WNW,9.2,17.3,N/A,Snow,Light Snow,290,2013-03-12 17:15:00
12:35 PM,23.0,17.6,80,29.72,3.0,NW,8.1,-,N/A,Snow,Light Snow,320,2013-03-12 17:35:00
12:55 PM,23.0,17.6,80,29.72,2.5,NW,10.4,16.1,N/A,Snow,Light Snow,310,2013-03-12 17:55:00
1:15 PM,23.0,17.6,80,29.73,3.0,WNW,11.5,16.1,N/A,Snow,Light Snow,300,2013-03-12 18:15:00
1:35 PM,23.0,17.6,80,29.73,2.0,NW,11.5,17.3,N/A,Snow,Light Snow,320,2013-03-12 18:35:00
1:55 PM,21.2,17.6,86,29.73,1.2,NNW,11.5,16.1,N/A,Snow,Light Snow,340,2013-03-12 18:55:00
2:15 PM,23.0,17.6,80,29.74,1.5,NW,8.1,12.7,N/A,Snow,Light Snow,320,2013-03-12 19:15:00
2:35 PM,23.0,17.6,80,29.75,1.5,NNW,11.5,-,N/A,Snow,Light Snow,330,2013-03-12 19:35:00
2:55 PM,21.2,15.8,80,29.76,2.0,NNW,12.7,19.6,N/A,Snow,Light Snow,330,2013-03-12 19:55:00
3:15 PM,21.2,14.0,74,29.77,2.5,NNW,16.1,20.7,N/A,Snow,Light Snow,340,2013-03-12 20:15:00
3:35 PM,21.2,14.0,74,29.77,3.0,NW,10.4,16.1,N/A,Snow,Light Snow,310,2013-03-12 20:35:00
3:55 PM,19.4,14.0,80,29.79,1.2,NW,11.5,17.3,N/A,Snow,Light Snow,320,2013-03-12 20:55:00
4:15 PM,19.4,12.2,74,29.79,2.0,NNW,13.8,18.4,N/A,Snow,Light Snow,330,2013-03-12 21:15:00
4:35 PM,19.4,12.2,74,29.80,3.0,NW,11.5,17.3,N/A,Snow,Light Snow,320,2013-03-12 21:35:00
4:55 PM,19.4,12.2,74,29.81,1.8,NNW,10.4,16.1,N/A,Snow,Light Snow,330,2013-03-12 21:55:00
5:15 PM,17.6,14.0,86,29.82,0.8,NNW,5.8,-,N/A,Snow,Light Snow,330,2013-03-12 22:15:00
5:35 PM,17.6,14.0,86,29.82,1.5,NNW,6.9,-,N/A,Snow,Light Snow,340,2013-03-12 22:35:00
5:55 PM,17.6,14.0,86,29.83,0.8,NW,3.5,-,N/A,Snow,Light Snow,320,2013-03-12 22:55:00
6:15 PM,17.6,14.0,86,29.84,0.8,NNW,4.6,-,N/A,Snow,Light Snow,330,2013-03-12 23:15:00
6:35 PM,17.6,14.0,86,29.84,0.8,NW,10.4,-,N/A,Snow,Light Snow,320,2013-03-12 23:35:00
6:55 PM,17.6,14.0,86,29.85,1.5,NNW,8.1,18.4,N/A,Snow,Light Snow,330,2013-03-12 23:55:00
7:15 PM,17.6,14.0,86,29.86,2.5,NNW,8.1,16.1,N/A,Snow,Light Snow,330,2013-03-13 00:15:00
7:35 PM,17.6,14.0,86,29.87,2.0,NNW,8.1,16.1,N/A,Snow,Light Snow,330,2013-03-13 00:35:00
7:55 PM,17.6,14.0,86,29.88,2.0,NNW,12.7,17.3,N/A,Snow,Light Snow,330,2013-03-13 00:55:00
8:15 PM,17.6,14.0,86,29.88,1.8,NNW,8.1,-,N/A,Snow,Light Snow,330,2013-03-13 01:15:00
8:35 PM,19.4,14.0,80,29.89,2.0,North,10.4,-,N/A,Snow,Light Snow,350,2013-03-13 01:35:00
8:55 PM,17.6,14.0,86,29.90,2.0,North,12.7,20.7,N/A,Snow,Light Snow,360,2013-03-13 01:55:00
9:15 PM,17.6,14.0,86,29.90,1.2,North,6.9,-,N/A,Snow,Light Snow,360,2013-03-13 02:15:00
9:35 PM,17.6,14.0,86,29.91,1.8,NNW,5.8,-,N/A,Snow,Light Snow,340,2013-03-13 02:35:00
9:55 PM,17.6,14.0,86,29.91,3.0,North,9.2,-,N/A,Snow,Light Snow,350,2013-03-13 02:55:00
10:15 PM,17.6,14.0,86,29.91,2.5,North,12.7,17.3,N/A,Snow,Light Snow,350,2013-03-13 03:15:00
10:35 PM,17.6,14.0,86,29.92,2.5,North,10.4,-,N/A,Snow,Light Snow,350,2013-03-13 03:35:00
10:55 PM,17.6,14.0,86,29.93,1.8,North,9.2,-,N/A,Snow,Light Snow,350,2013-03-13 03:55:00
11:15 PM,17.6,14.0,86,29.93,1.8,North,11.5,16.1,N/A,Snow,Light Snow,350,2013-03-13 04:15:00
11:35 PM,17.6,14.0,86,29.94,1.5,North,8.1,-,N/A,Snow,Light Snow,350,2013-03-13 04:35:00
11:55 PM,17.6,14.0,86,29.94,3.0,NNW,11.5,18.4,N/A,Snow,Light Snow,340,2013-03-13 04:55:00